Location: Cactus School
(34.5700°N, 118.0931°W)
Time: 21:53:08
(UTC-08:00)

N. Korean satellite - Pass Details

Date: 13 November 2017
Orbit: 460 x 514 km, 97.2° (Epoch: 24 November)

Event Time Altitude Azimuth Distance (km) Brightness Sun altitude
Rises 17:42:53 0° 158° (SSE) 2,470 10.1 -11.4°
Reaches altitude 10° 17:44:56 10° 154° (SSE) 1,602 9.1 -11.9°
Maximum altitude 17:48:17 54° 76° (ENE) 571 6.5 -12.5°
Drops below altitude 10° 17:51:42 10° 359° (N) 1,627 9.1 -13.2°
Sets 17:53:47 0° 354° (N) 2,515 10.1 -13.6°
